Location: Unspecified
(0.0000°N, 0.0000°E)
Time: 13:34:00
(UTC+00:00)

Hubble Space Telescope - Pass Details

Date: 10 October 2022
Orbit: 530 x 534 km, 28.5° (Epoch: 04 December)

Event Time Altitude Azimuth Distance (km) Brightness Sun altitude
Rises 05:15:18 0° 208° (SSW) 2,665 4.1 -7.9°
Reaches altitude 10° 05:18:50 10° 177° (S) 1,775 3.5 -7.0°
Maximum altitude 05:20:31 12° 153° (SSE) 1,638 3.7 -6.6°
Drops below altitude 10° 05:22:12 10° 128° (SE) 1,775 4.5 -6.2°
Sets 05:25:43 0° 97° (E) 2,663 7.4 -5.3°
